Airfield :
LOGIN :

Register | Disclaimer

   EN    FR    IT 

 










Legend :    VFR   Marginal VFR   IFR   Intensive IFR   Very Intensive IFR
Visi :
Ceiling :
>= 8 km
>= 3000ft
5 to 8 km
1000 to 3000 ft
1500m to 5 km
500 to 1000 ft
800 to 1500m
200 to 500 ft
< 800m
< 200 ft
Symbols :   Thunderstorms  Fog  Heavy snow  Heavy precipitations  Wind > 20 kt
SIGMETs :     Misc.  Thunderstorms  Icing  Turbulence  Mountain Waves  Volcanic Ashes






- Airport Elevation : 915 ft
- IATA code : LUG


LSZA - Lugano

CURRENT METAR :
  • 031820Z AUTO VRB02KT CAVOK 13/02 Q1014

EXPIRED METARs :
  • 031750Z AUTO 21003KT 160V230 CAVOK 13/02 Q1014
  • 031720Z AUTO 20007KT CAVOK 14/02 Q1013
  • 031650Z AUTO 20007KT CAVOK 15/02 Q1013
  • 031620Z AUTO 19009KT CAVOK 16/01 Q1013
  • 031550Z 20010KT 9999 FEW070 16/01 Q1012 NOSIG

TAF TAF LSZA
Valid from the 03 at 15:00 until the 04 at 00:00 UTC


031425Z 0315/0324 20005KT 9999 FEW080
BECMG 0316/0319 CAVOK
ATIS : +41 22 417 40 88



MET'MAP, your aeronautical weather chart ! - Copyright ORBIFLY December 2007 - Disclaimer

ORBIFLY MET'MAP TEAM :

Programming & Development : Alexandra Zaïnal
Concept & original design : Baudouin d'Aumeries
Assistance for programming : Marc-Olivier Méhu
Technical & hardware support : Manuel Goepfert

Contact : metmap@orbifly.com




SOURCES & CREDITS :

   NOAA